Weather History for KCCU - April, 2013

Change the Weather History Date:

Sunday, April 7, 2013

  Actual Average (KLXV) Record (KLXV)
Temperature  
Mean Temperature 28 °F -  
Max Temperature 33 °F 41 °F 56 °F (1978)
Min Temperature 23 °F 16 °F -10 °F (1983)
Degree Days  
Heating Degree Days 37 36  
Month to date heating degree days 259  
Since 1 July heating degree days 9242  
Cooling Degree Days 0 0  
Month to date cooling degree days 0  
Year to date cooling degree days 0  
Moisture  
Dew Point 20 °F    
Average Humidity 69    
Maximum Humidity 80    
Minimum Humidity 48    
Precipitation  
Precipitation 0.01 in 0.03 in 0.45 in (2008)
Month to date precipitation 0.23  
Year to date precipitation 2.49  
Sea Level Pressure  
Sea Level Pressure 29.99 in    
Wind  
Wind Speed 19 mph (WSW)    
Max Wind Speed 31 mph    
Max Gust Speed 40 mph    
Visibility 4 miles    
Events Snow , Thunderstorm    
T = Trace of Precipitation, MM = Missing Value Source: NWS Daily Summary

Daily Weather History Graph

Daily Weather History Graph

Search for Another Location

Airport or City:

Trip Planner

Search our weather history database for the weather conditions in past years. The results will help you decide how hot, cold, wet, or windy it might be!

Date:

Astronomy

Apr. 07, 2013 Rise Set
Actual Time 6:39 AM MDT 7:34 PM MDT
Civil Twilight 6:11 AM MDT 8:02 PM MDT
Nautical Twilight 5:39 AM MDT 8:34 PM MDT
Astronomical Twilight 5:05 AM MDT 9:08 PM MDT
Moon 4:57 AM MDT (4/7) 5:10 PM MDT (4/7)
Length of Visible Light 13h 50m
Length of Day
12h 55m
Waning Crescent, 8% of the Moon is Illuminated
Apr 7
Waning Crescent
Apr 10
New
Apr 18
First Quarter
Apr 25
Full
May 2
Last Quarter

Hourly Weather History & Observations

Time (MDT) Temp. Windchill Dew Point Humidity Pressure Visibility Wind Dir Wind Speed Gust Speed Precip Events Conditions
12:12 AM 28.4 °F 15.1 °F 21.2 °F 74% 30.07 in 1.2 mi WSW 20.7 mph 33.4 mph N/A Snow Light Snow
12:32 AM 28.4 °F 15.4 °F 21.2 °F 74% 30.07 in 2.5 mi West 19.6 mph 27.6 mph N/A Snow Light Snow
12:52 AM 28.4 °F 15.8 °F 23.0 °F 80% 30.07 in 1.8 mi West 18.4 mph 21.9 mph N/A Snow Light Snow
1:12 AM 28.4 °F 13.5 °F 21.2 °F 74% 30.06 in 0.8 mi West 26.5 mph 34.5 mph N/A Snow Light Snow
1:32 AM 26.6 °F 11.4 °F 21.2 °F 80% 30.06 in 5.0 mi West 25.3 mph 33.4 mph N/A   Haze
1:52 AM 26.6 °F 11.4 °F 21.2 °F 80% 30.05 in 0.5 mi West 25.3 mph 33.4 mph N/A Snow Light Snow
2:12 AM 26.6 °F 11.7 °F 21.2 °F 80% 30.05 in 0.2 mi West 24.2 mph 32.2 mph N/A Snow Snow
2:32 AM 26.6 °F 12.0 °F 21.2 °F 80% 30.05 in 0.2 mi West 23.0 mph - N/A Snow Snow
2:52 AM 26.6 °F 14.3 °F 21.2 °F 80% 30.03 in 0.2 mi West 16.1 mph 20.7 mph N/A Snow Light Snow
3:12 AM 26.6 °F - 21.2 °F 80% 30.03 in 5.0 mi North - - N/A Snow Light Snow
3:32 AM 24.8 °F 12.4 °F 19.4 °F 80% 30.02 in 10.0 mi West 15.0 mph - N/A   Overcast
3:52 AM 24.8 °F 11.9 °F 19.4 °F 80% 30.03 in 10.0 mi West 16.1 mph - N/A   Overcast
4:12 AM 24.8 °F 13.4 °F 19.4 °F 80% 30.02 in 10.0 mi West 12.7 mph 25.3 mph N/A   Overcast
4:32 AM 24.8 °F 15.3 °F 19.4 °F 80% 30.02 in 10.0 mi SW 9.2 mph - N/A   Mostly Cloudy
4:52 AM 23.0 °F - 17.6 °F 80% 30.02 in 10.0 mi North - - N/A   Clear
5:12 AM 23.0 °F 11.1 °F 17.6 °F 80% 30.01 in 10.0 mi West 12.7 mph 16.1 mph N/A   Scattered Clouds
5:32 AM 24.8 °F 13.4 °F 19.4 °F 80% 30.01 in 10.0 mi WSW 12.7 mph - N/A   Overcast
5:52 AM 24.8 °F 11.5 °F 19.4 °F 80% 30.01 in 10.0 mi West 17.3 mph 23.0 mph N/A   Overcast
6:12 AM 24.8 °F 11.1 °F 19.4 °F 80% 30.00 in 10.0 mi West 18.4 mph 24.2 mph N/A   Overcast
6:21 AM 24.8 °F 9.6 °F 19.4 °F 80% 30.00 in 10.0 mi West 23.0 mph - N/A   Overcast
7:52 AM 24.8 °F 8.4 °F 19.4 °F 80% 29.99 in 7.0 mi West 27.6 mph 31.1 mph N/A   Overcast
8:12 AM 24.8 °F 10.0 °F 19.4 °F 80% 30.00 in 10.0 mi West 21.9 mph - N/A   Overcast
8:32 AM 24.8 °F 13.4 °F 19.4 °F 80% 30.00 in 10.0 mi West 12.7 mph - N/A   Overcast
8:52 AM 26.6 °F 15.2 °F 19.4 °F 74% 30.00 in 10.0 mi West 13.8 mph 18.4 mph N/A   Overcast
9:12 AM 24.8 °F 12.4 °F 19.4 °F 80% 30.00 in 10.0 mi WSW 15.0 mph 21.9 mph N/A   Overcast
9:32 AM 26.6 °F 13.8 °F 19.4 °F 74% 30.00 in 10.0 mi WSW 17.3 mph 28.8 mph N/A   Overcast
9:52 AM 28.4 °F 16.6 °F 19.4 °F 69% 30.00 in 10.0 mi WSW 16.1 mph 25.3 mph N/A   Mostly Cloudy
10:12 AM 28.4 °F 14.4 °F 17.6 °F 64% 29.99 in 7.0 mi WSW 23.0 mph 31.1 mph N/A   Mostly Cloudy
10:32 AM 30.2 °F 16.8 °F 17.6 °F 60% 29.99 in 4.0 mi WSW 23.0 mph 33.4 mph N/A   Haze
10:52 AM 30.2 °F 14.9 °F 17.6 °F 60% 29.98 in 2.5 mi WSW 31.1 mph 36.8 mph N/A   Haze
11:12 AM 32.0 °F 18.4 °F 17.6 °F 55% 29.99 in 1.2 mi West 26.5 mph 40.3 mph N/A Snow Light Snow
11:32 AM 30.2 °F 15.4 °F 17.6 °F 60% 29.99 in 2.5 mi West 28.8 mph 36.8 mph N/A Snow Light Snow
11:52 AM 32.0 °F 18.9 °F 19.4 °F 60% 29.99 in 7.0 mi West 24.2 mph 36.8 mph N/A   Overcast
12:12 PM 32.0 °F 18.9 °F 19.4 °F 60% 29.99 in 5.0 mi WSW 24.2 mph 33.4 mph N/A   Haze
12:32 PM 32.0 °F 17.9 °F 17.6 °F 55% 29.98 in 2.0 mi West 28.8 mph 40.3 mph N/A   Haze
12:52 PM 32.0 °F 21.2 °F 17.6 °F 55% 29.98 in 5.0 mi West 16.1 mph 38.0 mph N/A Thunderstorm Unknown
1:12 PM 30.2 °F 16.2 °F 19.4 °F 64% 29.98 in 4.0 mi West 25.3 mph 31.1 mph N/A Snow Light Snow
1:32 PM 30.2 °F 16.2 °F 23.0 °F 75% 29.98 in 0.2 mi West 25.3 mph 38.0 mph N/A Snow Light Snow
1:52 PM 32.0 °F 18.9 °F 21.2 °F 64% 29.98 in 1.5 mi West 24.2 mph 35.7 mph N/A Snow Light Snow
2:12 PM 32.0 °F 20.8 °F 21.2 °F 64% 29.98 in 4.0 mi West 17.3 mph 34.5 mph N/A   Haze
2:32 PM 33.8 °F 24.8 °F 23.0 °F 65% 29.97 in 5.0 mi SW 12.7 mph 25.3 mph 0.01 in Snow Light Snow
2:52 PM 30.2 °F 20.2 °F 19.4 °F 64% 29.97 in 2.5 mi SW 12.7 mph 23.0 mph 0.01 in Snow , Thunderstorm Light Thunderstorms and Snow
3:12 PM 28.4 °F 13.3 °F 21.2 °F 74% 29.96 in 0.2 mi West 27.6 mph 38.0 mph N/A Snow Heavy Snow
3:32 PM 28.4 °F 17.5 °F 23.0 °F 80% 29.97 in 0.2 mi West 13.8 mph 21.9 mph N/A Snow Snow
3:52 PM 28.4 °F 15.8 °F 23.0 °F 80% 29.97 in 0.2 mi West 18.4 mph 25.3 mph N/A Snow Snow
4:12 PM 30.2 °F 20.8 °F 23.0 °F 75% 29.97 in 0.8 mi West 11.5 mph 25.3 mph N/A Snow Light Snow
4:32 PM 30.2 °F 19.8 °F 23.0 °F 75% 29.96 in 2.0 mi WSW 13.8 mph 23.0 mph N/A Snow Light Snow
4:52 PM 32.0 °F 21.6 °F 24.8 °F 75% 29.96 in 1.2 mi SW 15.0 mph 20.7 mph N/A Snow Light Snow
5:12 PM 30.2 °F 21.3 °F 21.2 °F 69% 29.96 in 2.0 mi SW 10.4 mph 20.7 mph N/A Snow Light Snow
5:32 PM 30.2 °F 19.8 °F 23.0 °F 75% 29.96 in 0.2 mi SW 13.8 mph 25.3 mph N/A Snow Snow
5:52 PM 32.0 °F 21.6 °F 21.2 °F 64% 29.96 in 1.8 mi SW 15.0 mph 27.6 mph N/A   Haze
6:12 PM 32.0 °F 23.6 °F 21.2 °F 64% 29.95 in 5.0 mi SW 10.4 mph 28.8 mph N/A   Haze
6:32 PM 32.0 °F 22.5 °F 21.2 °F 64% 29.95 in 3.0 mi SSW 12.7 mph 20.7 mph N/A   Haze
6:52 PM 32.0 °F 20.1 °F 21.2 °F 64% 29.95 in 2.5 mi SSW 19.6 mph 28.8 mph N/A Snow Light Snow
7:12 PM 30.2 °F 17.8 °F 21.2 °F 69% 29.96 in 0.8 mi SSW 19.6 mph 27.6 mph N/A Snow Light Snow
7:32 PM 30.2 °F 18.5 °F 21.2 °F 69% 29.96 in 0.8 mi SW 17.3 mph 31.1 mph N/A Snow Light Snow
7:52 PM 28.4 °F 13.8 °F 23.0 °F 80% 29.95 in 0.2 mi SW 25.3 mph 34.5 mph N/A Snow Snow
8:12 PM 30.2 °F 17.4 °F 21.2 °F 69% 29.95 in 0.8 mi WSW 20.7 mph 32.2 mph N/A Snow Light Snow
8:32 PM 30.2 °F 18.1 °F 17.6 °F 60% 29.95 in 1.5 mi SW 18.4 mph 29.9 mph N/A Snow Light Snow
8:52 PM 30.2 °F 19.8 °F 17.6 °F 60% 29.96 in 3.0 mi SSW 13.8 mph 24.2 mph N/A   Haze
9:12 PM 32.0 °F 20.8 °F 17.6 °F 55% 29.97 in 5.0 mi SSW 17.3 mph 32.2 mph N/A   Haze
9:32 PM 32.0 °F 20.5 °F 17.6 °F 55% 29.96 in 4.0 mi SSW 18.4 mph 25.3 mph N/A Snow Light Snow
9:52 PM 32.0 °F 20.5 °F 15.8 °F 51% 29.96 in 4.0 mi SW 18.4 mph 27.6 mph N/A   Haze
10:12 PM 32.0 °F 21.6 °F 14.0 °F 48% 29.96 in 4.0 mi SSW 15.0 mph 21.9 mph N/A   Haze
10:32 PM 32.0 °F 21.6 °F 14.0 °F 48% 29.95 in 7.0 mi SSW 15.0 mph 23.0 mph N/A   Scattered Clouds
10:52 PM 32.0 °F 22.1 °F 14.0 °F 48% 29.94 in 10.0 mi SW 13.8 mph 23.0 mph N/A   Clear
11:12 PM 32.0 °F 19.5 °F 14.0 °F 48% 29.94 in 2.5 mi WSW 21.9 mph 34.5 mph N/A   Haze
11:32 PM 32.0 °F 21.6 °F 15.8 °F 51% 29.95 in 1.2 mi SSW 15.0 mph 33.4 mph N/A Snow Light Snow
11:52 PM 28.4 °F 13.8 °F 17.6 °F 64% 29.94 in 0.5 mi South 25.3 mph 29.9 mph N/A Snow Light Snow